User: anonymous   Login
Location: Unspecified
(0.0000°N, 0.0000°E)
Time: 23:05:08
(UTC+00:00)
Language:

Vela 3A - Orbit

View from above orbital plane
View from above orbital plane
View from above satellite
View from above satellite

Ground track
Ground track

The orbit data is extracted from the following two-line orbital elements,

1 01458U 65058A   16206.65790930 -.00000741  00000-0  00000+0 0  9998
2 01458  23.9224   9.2482 4979909 210.6603   0.3525  0.21278898 78478
Epoch (UTC): 24 July 2016 15:47:23
Eccentricity: 0.4979909
inclination: 23.9224°
perigee height: 53116 km
apogee height: 171152 km
right ascension of ascending node: 9.2482°
argument of perigee: 210.6603°
revolutions per day: 0.21278898
mean anomaly at epoch: 0.3525°
orbit number at epoch: 7847

The dashed part of the orbit path shows where the satellite is in the earth's shadow,  

DLR